Voltar ao catálogo

STARLINK-30615

AtivoComunicaçõesVLEO
NORAD 58092·PAYLOAD·🇺🇸 United States

Lançado Oct 18, 2023 de Cape Canaveral Space Force Station

Loading…

Próximas Passagens (próximas 24 horas)

TLE

AtualizadoSource: CelesTrak SupGP

Época: Sep 14, 2026, 22:24 UTC

1 58092C 23160T   26257.93381944  .00047469  00000+0  17195-2 0  2570
2 58092  43.0011  89.6366 0001621 267.1512  45.6542 15.27550793    18

Acompanhe STARLINK-30615 em tempo real com AllMySat

Download on the App Store